ECHOSTAR 15

Last updated on Sun Jun 21 2026 00:03:04 GMT+0000 (Coordinated Universal Time)

1 36792U 10034A 26171.41331961 -.00000005 00000+0 00000+0 0 9994 2 36792 0.0100 329.4882 0002091 96.2842 232.8375 1.00270481 58353
UTC large
Height (km)
Speed (km/s)
/
Latitude / Longitude
Inclination (degrees)
Orbital Period (minutes)
Azimuth
Elevation
Range (km)
Doppler Factor

Next 0 passes for location: London (51.5072 / 0.1276)

No passes found over London.
ECHOSTAR 15